Content
SEND FEEDBACK

Daily
Averages
Monthly
Summary
United States of America

PORT JERVIS, NEW YORK


Home > North America > United States > New York
Elevation: 428 feet     Latitude: 41 22N     Longitude: 074 42W

WEATHER
 
SELECT A DAY
Number of Records: 162,891;   Date Range: 3/7/98 - 12/19/14
 
SHARE

PRINT THIS DATA

[ ← Previous Day ]
WEATHER ALMANAC - JANUARY 31, 2013
[ Next Day → ]
[ °C ]   °F
Weather ElementAverageHighLow
Temperature46.8 °F55.4 °F (2:13 am)27 °F (10:53 pm)
Dewpoint39.1 °F55.4 °F (2:19 am)9 °F (9:53 pm)
Humidity77.8 %100 % (12:32 am)35 % (2:53 pm)
Barometer29.27 in29.75 in (11:53 pm)29.00 in (5:13 am)
Wind Speed7.2 mph18.4 mph (1:53 pm)
Wind Gust38 mph (6:12 am)
Weather ElementAverage
Visibility5.5 mi
Wind DirectionS (176.5 °)

Weather ElementTotal
Precipitation4.99 in
Heating Degree Days23.8 (Base 65)
Averaged from 54 records on January 31, 2013
WEATHER CONDITIONS BREAKOUT
WIND DIRECTION BREAKOUT
WEATHER BY HOUR - JANUARY 31, 2013
[ °C ]   °F
Local TimeTemperatureDewpointHumidityBarometerVisibilityWind DirectionWind SpeedGust SpeedPrecipitationEventsConditions
12:22 AM51.8 °F50.0 °F94 %29.29 in0.5 miCalm0.03 inFog-RainRain
12:32 AM50.0 °F50.0 °F100 %29.27 in0.5 miCalm0.06 inFog-RainLight Rain
12:41 AM51.8 °F50.0 °F94 %29.28 in1.0 miWest (280°)4.6 mph0.10 inRainRain
12:44 AM51.8 °F51.8 °F100 %29.27 in1.5 miCalm0.12 inRainHeavy Rain
12:51 AM51.8 °F51.8 °F100 %29.26 in1.2 miCalm0.14 inRainRain
12:53 AM50.0 °F50.0 °F100 %29.25 in1.0 miCalm0.14 inRainRain
1:00 AM51.8 °F50.0 °F94 %29.23 in0.5 miCalm0.03 inFog-RainHeavy Rain
1:21 AM50.0 °F48.2 °F94 %29.18 in0.5 miCalm0.09 inFog-RainRain
1:41 AM51.8 °F51.8 °F100 %29.13 in1.5 miCalm0.10 inRainLight Rain
1:46 AM51.8 °F51.8 °F100 %29.12 in3.0 miWest (270°)3.5 mph0.11 inRainLight Rain
1:53 AM53.1 °F52.0 °F96 %29.10 in7.0 miCalm0.11 inRainLight Rain
2:13 AM55.4 °F53.6 °F94 %29.11 in1.8 miVariable6.9 mph21.9 mph0.17 inRainHeavy Rain
2:19 AM55.4 °F55.4 °F100 %29.09 in0.8 miWest (280°)12.7 mph26.5 mph0.26 inRainHeavy Rain
2:28 AM55.4 °F53.6 °F94 %29.10 in1.2 miVariable4.6 mph26.5 mph0.36 inRainHeavy Rain
2:50 AM55.4 °F53.6 °F94 %29.07 in1.8 miCalm0.54 inRainHeavy Rain
2:53 AM55.0 °F54.0 °F96 %29.06 in2.5 miSouth (180°)3.5 mph0.55 inRainHeavy Rain
3:01 AM53.6 °F53.6 °F100 %29.05 in3.0 miCalm0.03 inRainRain
3:09 AM53.6 °F53.6 °F100 %29.05 in2.5 miSSW (210°)3.5 mph0.06 inRainRain
3:18 AM53.6 °F51.8 °F94 %29.08 in1.5 miWSW (240°)6.9 mph0.13 inRainHeavy Rain
3:25 AM53.6 °F53.6 °F100 %29.07 in1.0 miSSW (200°)5.8 mph0.24 inRainHeavy Rain
3:31 AM53.6 °F53.6 °F100 %29.07 in1.5 miSouth (190°)4.6 mph0.28 inRainHeavy Rain
3:36 AM53.6 °F53.6 °F100 %29.08 in3.0 miSSW (210°)6.9 mph0.29 inRainRain
3:53 AM54.0 °F53.1 °F97 %29.08 in5.0 miSW (220°)4.6 mph0.33 inRainRain
4:09 AM53.6 °F53.6 °F100 %29.09 in2.5 miSSW (210°)3.5 mph0.05 inRainHeavy Rain
4:22 AM53.6 °F53.6 °F100 %29.08 in3.0 miSW (230°)3.5 mph0.10 inRainRain
4:32 AM53.6 °F53.6 °F100 %29.09 in3.0 miSW (230°)3.5 mph0.13 inRainRain
4:53 AM54.0 °F53.1 °F97 %29.02 in10.0 miSouth (180°)4.6 mph0.16 inRainLight Rain
5:13 AM53.6 °F53.6 °F100 %29.00 in10.0 miCalm0.01 inOvercast
5:20 AM55.4 °F53.6 °F94 %29.02 in5.0 miSW (220°)5.8 mph0.02 inRainRain
5:38 AM55.4 °F53.6 °F94 %29.03 in2.5 miSW (230°)10.4 mph19.6 mph0.08 inRainLight Rain
5:41 AM55.4 °F51.8 °F88 %29.03 in4.0 miWSW (240°)12.7 mph24.2 mph0.08 inRainLight Rain
5:53 AM55.0 °F50.0 °F83 %29.05 in9.0 miWSW (250°)13.8 mph33.4 mph0.09 inRainLight Rain
6:02 AM51.8 °F44.6 °F76 %29.08 in7.0 miWest (270°)12.7 mph34.5 mph0.00 inRainLight Rain
6:12 AM50.0 °F41.0 °F71 %29.09 in10.0 miWSW (250°)15.0 mph38.0 mph0.00 inOvercast
6:53 AM48.0 °F34.0 °F58 %29.15 in10.0 miSW (220°)11.5 mph19.6 mph0.00 inOvercast
7:53 AM44.1 °F30.0 °F58 %29.22 in10.0 miWSW (250°)9.2 mph26.5 mphOvercast
8:53 AM43.0 °F27.0 °F53 %29.29 in10.0 miWSW (250°)9.2 mph27.6 mphOvercast
9:53 AM43.0 °F23.0 °F45 %29.34 in10.0 miSW (230°)13.8 mph25.3 mphOvercast
10:53 AM41.0 °F21.0 °F45 %29.38 in10.0 miWSW (250°)12.7 mph28.8 mphMostly Cloudy
11:53 AM43.0 °F19.0 °F38 %29.40 in10.0 miWest (270°)15.0 mph27.6 mphOvercast
12:53 PM43.0 °F19.9 °F40 %29.41 in10.0 miWSW (250°)6.9 mph23.0 mphScattered Clouds
1:53 PM41.0 °F18.0 °F40 %29.44 in10.0 miWSW (250°)18.4 mph31.1 mphMostly Cloudy
2:53 PM39.9 °F14.0 °F35 %29.48 in10.0 miWSW (250°)17.3 mph27.6 mphPartly Cloudy
3:53 PM37.0 °F15.1 °F41 %29.54 in10.0 miWSW (240°)8.1 mph21.9 mphMostly Cloudy
4:53 PM35.1 °F10.0 °F35 %29.58 in10.0 miWSW (250°)15.0 mph29.9 mphScattered Clouds
5:53 PM33.1 °F12.0 °F42 %29.63 in10.0 miWSW (250°)16.1 mph24.2 mphMostly Cloudy
6:53 PM32.0 °F10.0 °F40 %29.67 in10.0 miWSW (250°)10.4 mph17.3 mphClear
7:53 PM30.0 °F16.0 °F56 %29.70 in10.0 miWest (260°)12.7 mph24.2 mphScattered Clouds
8:09 PM28.4 °F19.4 °F69 %29.69 in2.5 miWSW (250°)10.4 mph29.9 mph0.00 inSnowLight Snow
8:17 PM28.4 °F19.4 °F69 %29.69 in6.0 miWSW (240°)10.4 mph20.7 mph0.00 inSnowLight Snow
8:53 PM28.0 °F14.0 °F56 %29.71 in10.0 miWSW (240°)8.1 mph21.9 mph0.00 inClear
9:53 PM28.0 °F9.0 °F45 %29.73 in10.0 miWSW (250°)12.7 mph21.9 mphClear
10:53 PM27.0 °F9.0 °F47 %29.74 in10.0 miWSW (240°)11.5 mph18.4 mphClear
11:53 PM27.0 °F9.0 °F47 %29.75 in10.0 miWSW (250°)6.9 mph18.4 mphClear
Hourly data recorded from KFWN, located miles away from Port Jervis, New York







STORIES FROM OUR PARTNERS